�N����,����,�~����,�C��,���x,�C��,����,���ϕ���,�ő�u�ԕ���,�ő厞����,���˗�,�I�_���x,�n�����x,�ő啗���N��,DTYPE
"23/07/29","00:10",0.0,27.4,84.1,1010.4,298.3,0.7,1.3,329.8,0.00,24.5,26.6,"00:01:44",1
"23/07/29","00:20",0.0,27.4,84.2,1010.0,307.3,1.1,2.2,322.4,0.00,24.5,26.4,"00:13:44",1
"23/07/29","00:30",0.0,27.4,84.1,1010.2,287.2,1.0,2.0,264.0,0.00,24.5,26.4,"00:24:48",1
"23/07/29","00:40",0.0,27.4,84.2,1010.2,301.6,0.8,1.7,328.3,0.00,24.5,26.4,"00:30:02",1
"23/07/29","00:50",0.0,27.4,84.3,1010.4,301.2,1.0,1.9,325.2,0.00,24.6,26.4,"00:43:12",1
"23/07/29","01:00",0.0,27.4,84.4,1010.2,291.8,1.0,1.4,303.1,0.00,24.6,26.4,"00:50:16",1
"23/07/29","01:10",0.0,27.4,84.5,1010.2,276.1,0.6,1.2,312.4,0.00,24.6,26.3,"01:09:08",1
"23/07/29","01:20",0.0,27.3,84.6,1010.2,294.9,0.6,1.2,336.6,0.00,24.5,26.2,"01:10:56",1
"23/07/29","01:30",0.0,27.3,84.9,1010.0,308.9,0.8,1.4,334.2,0.00,24.6,26.2,"01:23:36",1
"23/07/29","01:40",0.0,27.2,85.1,1010.4,322.6,1.0,1.3,335.4,0.00,24.5,26.2,"01:32:00",1
"23/07/29","01:50",0.0,27.1,85.3,1010.2,322.0,0.8,1.3,338.4,0.00,24.5,26.2,"01:41:36",1
"23/07/29","02:00",0.0,26.9,85.7,1010.2,280.6,0.7,1.2,328.5,0.00,24.3,26.1,"01:55:36",1
"23/07/29","02:10",0.0,26.8,86.2,1010.7,299.9,0.8,1.3,326.6,0.00,24.3,26.2,"02:02:16",1
"23/07/29","02:20",0.0,26.6,86.6,1010.4,293.2,0.8,1.3,248.6,0.00,24.2,26.1,"02:19:28",1
"23/07/29","02:30",0.0,26.6,87.0,1010.4,302.3,1.0,1.8,321.7,0.00,24.3,25.9,"02:25:44",1
"23/07/29","02:40",0.0,26.5,87.3,1010.0,284.8,0.8,1.3,299.2,0.00,24.3,26.2,"02:34:40",1
"23/07/29","02:50",0.0,26.5,87.5,1010.4,287.2,0.8,1.6,297.9,0.00,24.3,26.1,"02:47:12",1
"23/07/29","03:00",0.0,26.5,87.8,1010.4,307.2,0.8,1.6,296.5,0.00,24.4,26.2,"02:57:52",1
"23/07/29","03:10",0.0,26.4,87.9,1010.2,291.2,0.8,1.8,324.0,0.00,24.3,26.2,"03:00:56",1
"23/07/29","03:20",0.0,26.4,88.1,1010.7,267.8,0.7,1.2,264.7,0.00,24.3,26.0,"03:12:56",1
"23/07/29","03:30",0.0,26.4,88.3,1010.7,277.3,0.7,1.1,298.4,0.00,24.3,26.0,"03:28:24",1
"23/07/29","03:40",0.0,26.5,88.4,1010.4,289.7,0.8,1.3,312.8,0.00,24.5,26.0,"03:37:52",1
"23/07/29","03:50",0.0,26.6,88.4,1010.4,302.0,1.0,1.3,324.1,0.00,24.6,25.9,"03:46:56",1
"23/07/29","04:00",0.0,26.6,88.4,1010.4,275.1,0.6,1.3,324.5,0.00,24.6,25.9,"03:50:08",1
"23/07/29","04:10",0.0,26.6,88.5,1010.4,270.9,0.7,1.1,268.5,0.00,24.6,25.9,"04:00:08",1
"23/07/29","04:20",0.0,26.6,88.5,1010.4,297.0,0.8,1.6,261.1,0.00,24.6,25.8,"04:19:12",1
"23/07/29","04:30",0.0,26.5,88.5,1010.4,296.7,0.5,0.9,318.3,0.00,24.5,25.8,"04:21:36",1
"23/07/29","04:40",0.0,26.4,88.6,1010.9,321.1,0.8,1.1,335.0,0.00,24.4,25.9,"04:35:12",1
"23/07/29","04:50",0.0,26.3,88.8,1010.7,284.2,0.7,1.0,270.9,0.00,24.3,25.9,"04:44:00",1
"23/07/29","05:00",0.0,26.3,89.0,1010.9,282.3,0.8,1.1,257.8,0.00,24.4,26.0,"04:50:48",1
"23/07/29","05:10",0.0,26.2,89.1,1011.2,295.5,0.5,0.9,317.1,0.00,24.3,25.7,"05:01:36",1
"23/07/29","05:20",0.0,26.3,89.2,1010.9,311.8,0.7,1.2,335.7,0.00,24.4,25.6,"05:16:24",1
"23/07/29","05:30",0.0,26.5,89.4,1011.2,327.0,1.0,1.3,324.8,0.00,24.7,25.7,"05:25:20",1
"23/07/29","05:40",0.0,26.4,89.5,1011.4,325.6,1.0,1.3,314.0,0.00,24.6,26.0,"05:30:24",1
"23/07/29","05:50",0.0,26.4,89.6,1011.4,319.8,0.8,1.6,342.1,0.00,24.6,25.6,"05:44:32",1
"23/07/29","06:00",0.0,26.4,89.5,1011.2,336.1,0.7,1.9,341.7,0.01,24.6,25.8,"05:55:52",1
"23/07/29","06:10",0.0,26.7,88.7,1011.6,345.8,0.7,2.0,357.3,0.04,24.7,25.7,"06:07:44",1
"23/07/29","06:20",0.0,27.4,87.6,1011.4,359.7,0.6,1.6,6.0,0.05,25.2,25.8,"06:13:28",1
"23/07/29","06:30",0.0,28.2,85.3,1011.4,66.0,0.5,1.7,123.2,0.07,25.5,25.8,"06:26:08",1
"23/07/29","06:40",0.0,29.1,81.6,1011.2,72.7,0.6,1.7,40.9,0.09,25.7,25.6,"06:30:40",1
"23/07/29","06:50",0.0,29.8,78.0,1010.4,35.9,0.2,0.8,9.2,0.09,25.6,25.6,"06:42:16",1
"23/07/29","07:00",0.0,29.6,75.5,1010.7,113.0,0.3,1.4,119.3,0.05,24.8,25.7,"06:54:32",1
"23/07/29","07:10",0.0,29.4,76.3,1010.4,132.0,0.7,1.8,141.4,0.03,24.8,25.8,"07:08:40",1
"23/07/29","07:20",0.0,28.7,78.2,1010.4,164.0,1.1,2.9,230.8,0.03,24.6,25.7,"07:13:28",1
"23/07/29","07:30",0.0,28.5,78.8,1010.2,169.3,1.0,2.0,196.3,0.04,24.5,25.8,"07:26:32",1
"23/07/29","07:40",0.0,28.6,79.0,1010.0,241.2,0.6,1.9,232.0,0.05,24.6,25.6,"07:39:28",1
"23/07/29","07:50",0.0,29.3,78.2,1010.2,110.1,0.5,1.4,213.9,0.11,25.1,25.7,"07:40:08",1
"23/07/29","08:00",0.0,30.1,75.7,1010.7,357.2,0.6,1.3,113.6,0.22,25.4,25.7,"07:51:20",1
"23/07/29","08:10",0.0,31.3,70.6,1011.4,4.3,0.5,1.6,359.2,0.29,25.4,25.6,"08:03:04",1
"23/07/29","08:20",0.0,31.3,67.3,1011.6,354.7,1.1,2.5,356.0,0.30,24.6,25.7,"08:16:24",1
"23/07/29","08:30",0.0,32.1,63.8,1012.3,130.4,0.8,2.2,145.0,0.31,24.4,25.7,"08:22:56",1
"23/07/29","08:40",0.0,32.4,60.2,1012.8,143.3,1.1,2.6,129.9,0.33,23.7,25.8,"08:34:16",1
"23/07/29","08:50",0.0,32.7,58.6,1012.8,118.9,0.8,2.2,140.5,0.34,23.6,25.9,"08:43:44",1
"23/07/29","09:00",0.0,33.2,55.4,1013.0,49.1,0.8,2.9,6.4,0.36,23.1,25.8,"08:58:24",1
"23/07/29","09:10",0.0,33.6,56.0,1013.0,35.7,1.0,2.4,4.6,0.38,23.6,25.9,"09:02:08",1
"23/07/29","09:20",0.0,32.7,57.5,1013.3,173.7,1.7,3.4,210.5,0.40,23.3,26.1,"09:14:32",1
"23/07/29","09:30",0.0,33.1,58.3,1013.3,135.1,1.5,4.1,237.9,0.41,23.9,26.1,"09:20:32",1
"23/07/29","09:40",0.0,32.7,55.6,1013.0,188.6,1.6,4.0,215.5,0.43,22.7,26.3,"09:38:48",1
"23/07/29","09:50",0.0,33.3,52.2,1013.0,170.4,1.3,3.4,227.3,0.45,22.2,26.3,"09:44:24",1
"23/07/29","10:00",0.0,33.7,51.4,1013.3,146.5,1.3,3.1,124.7,0.46,22.3,26.3,"09:54:24",1
"23/07/29","10:10",0.0,34.1,50.2,1013.0,173.5,1.1,3.9,20.1,0.48,22.3,26.4,"10:00:32",1
"23/07/29","10:20",0.0,34.0,48.8,1012.6,191.0,1.7,3.5,189.9,0.49,21.7,26.2,"10:12:40",1
"23/07/29","10:30",0.0,34.4,48.7,1012.8,331.4,0.8,2.5,235.6,0.50,22.1,26.2,"10:29:44",1
"23/07/29","10:40",0.0,34.4,49.3,1012.8,162.4,2.1,4.3,214.7,0.49,22.3,26.4,"10:33:28",1
"23/07/29","10:50",0.0,34.7,47.2,1012.3,149.6,1.3,3.3,154.7,0.52,21.8,26.5,"10:42:56",1
"23/07/29","11:00",0.0,35.0,45.3,1012.3,180.0,1.2,3.2,196.9,0.53,21.4,26.6,"10:53:44",1
"23/07/29","11:10",0.0,35.5,47.8,1012.8,137.4,1.5,3.4,128.5,0.53,22.8,26.6,"11:08:40",1
"23/07/29","11:20",0.0,34.8,49.2,1012.3,182.3,1.8,4.9,217.6,0.48,22.6,26.8,"11:13:12",1
"23/07/29","11:30",0.0,35.1,47.0,1012.3,172.2,1.6,4.4,231.8,0.51,22.1,26.8,"11:22:40",1
"23/07/29","11:40",0.0,35.1,47.6,1012.3,162.0,1.6,3.7,187.0,0.47,22.3,27.0,"11:37:44",1
"23/07/29","11:50",0.0,35.4,45.4,1011.6,164.8,1.7,4.0,215.6,0.55,21.8,27.1,"11:47:12",1
"23/07/29","12:00",0.0,35.3,45.5,1012.3,200.7,2.5,5.6,237.3,0.56,21.8,27.1,"11:54:40",1
"23/07/29","12:10",0.0,35.5,45.0,1012.1,227.7,1.6,4.7,207.8,0.56,21.8,27.1,"12:05:12",1
"23/07/29","12:20",0.0,35.8,48.5,1011.6,193.3,1.8,4.7,208.0,0.55,23.3,27.2,"12:17:28",1
"23/07/29","12:30",0.0,35.8,45.0,1011.4,202.3,3.0,5.9,214.5,0.55,22.1,27.2,"12:20:32",1
"23/07/29","12:40",0.0,36.1,46.6,1011.6,209.5,3.2,6.7,235.7,0.55,22.9,27.4,"12:32:16",1
"23/07/29","12:50",0.0,36.0,45.4,1011.2,181.4,2.3,5.2,193.4,0.50,22.4,27.3,"12:41:36",1
"23/07/29","13:00",0.0,36.4,42.8,1011.4,172.2,2.0,5.5,220.1,0.57,21.8,27.6,"12:58:40",1
"23/07/29","13:10",0.0,36.3,41.9,1011.2,219.0,2.3,5.1,199.5,0.54,21.3,27.5,"13:02:08",1
"23/07/29","13:20",0.0,36.5,42.2,1011.6,203.4,2.6,4.9,205.3,0.53,21.6,27.7,"13:14:16",1
"23/07/29","13:30",0.0,37.0,39.8,1011.6,133.0,1.5,4.8,138.7,0.51,21.1,27.6,"13:28:08",1
"23/07/29","13:40",0.0,36.6,39.8,1011.9,202.1,3.0,5.4,222.8,0.51,20.8,27.8,"13:34:16",1
"23/07/29","13:50",0.0,36.8,37.8,1011.6,224.7,2.0,5.1,240.2,0.51,20.1,27.8,"13:49:36",1
"23/07/29","14:00",0.0,36.8,37.9,1011.4,228.7,2.7,6.7,204.6,0.50,20.2,28.0,"13:51:28",1
"23/07/29","14:10",0.0,37.2,38.8,1011.6,284.1,1.5,3.6,227.9,0.50,20.9,28.0,"14:02:08",1
"23/07/29","14:20",0.0,37.1,39.4,1011.6,234.3,1.8,4.2,210.9,0.42,21.0,28.1,"14:13:52",1
"23/07/29","14:30",0.0,37.2,38.6,1011.4,262.1,1.2,3.4,228.2,0.45,20.8,27.9,"14:20:32",1
"23/07/29","14:40",0.0,37.6,40.0,1011.4,303.4,1.3,3.5,349.5,0.43,21.7,28.1,"14:36:24",1
"23/07/29","14:50",0.0,37.6,39.0,1011.4,209.8,1.7,4.0,231.1,0.41,21.3,28.2,"14:41:44",1
"23/07/29","15:00",0.0,37.2,37.4,1010.9,205.3,2.0,3.7,235.3,0.39,20.3,28.0,"14:50:16",1
"23/07/29","15:10",0.0,37.3,38.0,1011.4,262.2,1.1,4.8,246.1,0.37,20.6,28.1,"15:07:28",1
"23/07/29","15:20",0.0,37.5,40.5,1010.9,272.1,1.2,4.7,216.9,0.35,21.8,28.2,"15:18:16",1
"23/07/29","15:30",0.0,37.3,39.1,1010.4,203.7,1.5,4.1,184.5,0.32,21.1,28.2,"15:21:28",1
"23/07/29","15:40",0.0,36.8,40.4,1010.7,261.6,2.0,5.1,232.7,0.29,21.2,28.1,"15:32:56",1
"23/07/29","15:50",0.0,36.7,39.5,1010.2,271.1,2.1,4.8,248.1,0.27,20.7,28.3,"15:43:20",1
"23/07/29","16:00",0.0,36.6,39.8,1010.2,241.1,1.7,4.2,228.2,0.24,20.8,28.2,"15:51:44",1
"23/07/29","16:10",0.0,36.2,41.4,1010.0,254.0,1.5,4.0,233.1,0.15,21.1,28.1,"16:04:40",1
"23/07/29","16:20",0.0,36.6,39.6,1009.7,244.4,1.5,3.4,233.4,0.20,20.7,28.1,"16:11:20",1
"23/07/29","16:30",0.0,36.6,39.3,1010.2,236.2,1.5,3.7,233.9,0.17,20.6,28.2,"16:29:44",1
"23/07/29","16:40",0.0,36.2,40.8,1010.0,249.3,1.0,2.1,237.4,0.12,20.8,28.2,"16:37:28",1
"23/07/29","16:50",0.0,36.2,41.4,1009.7,294.9,1.3,3.5,340.2,0.15,21.1,28.2,"16:43:04",1
"23/07/29","17:00",0.0,36.3,42.2,1009.7,321.2,1.2,3.1,355.7,0.14,21.5,28.0,"16:55:52",1
"23/07/29","17:10",0.0,36.2,43.3,1009.7,246.5,1.1,3.1,235.2,0.13,21.8,28.1,"17:08:40",1
"23/07/29","17:20",0.0,36.1,45.0,1009.7,330.0,1.3,2.5,355.7,0.11,22.3,28.1,"17:15:20",1
"23/07/29","17:30",0.0,35.8,45.4,1009.5,278.9,1.1,2.5,243.5,0.06,22.2,27.9,"17:26:24",1
"23/07/29","17:40",0.0,35.4,46.3,1010.0,309.7,1.6,3.4,333.5,0.04,22.2,28.0,"17:35:12",1
"23/07/29","17:50",0.0,35.2,48.3,1009.5,283.6,1.2,3.5,290.5,0.04,22.7,27.9,"17:41:12",1
"23/07/29","18:00",0.0,34.5,50.1,1010.0,237.5,2.0,5.0,233.2,0.06,22.6,27.9,"17:56:56",1
"23/07/29","18:10",0.0,34.0,51.8,1009.7,245.0,1.6,4.1,237.9,0.06,22.7,27.7,"18:04:24",1
"23/07/29","18:20",0.0,33.7,52.5,1010.0,237.0,1.5,4.3,243.1,0.05,22.7,27.9,"18:19:04",1
"23/07/29","18:30",0.0,33.3,54.1,1009.7,248.9,1.3,3.6,228.0,0.03,22.8,28.0,"18:26:40",1
"23/07/29","18:40",0.0,32.8,56.0,1009.7,213.0,1.3,2.9,194.4,0.02,22.9,27.8,"18:31:04",1
"23/07/29","18:50",0.0,32.3,56.8,1009.3,194.4,1.0,2.5,193.2,0.00,22.7,27.7,"18:49:52",1
"23/07/29","19:00",0.0,31.7,57.6,1009.3,171.1,1.6,2.9,185.2,0.00,22.3,27.7,"18:55:28",1
"23/07/29","19:10",0.0,31.2,58.3,1009.0,166.2,2.1,4.3,178.4,0.00,22.1,27.6,"19:07:52",1
"23/07/29","19:20",0.0,30.9,60.4,1008.8,176.0,1.6,3.6,187.9,0.00,22.4,27.7,"19:10:16",1
"23/07/29","19:30",0.0,30.8,60.9,1008.6,247.8,1.3,2.5,225.3,0.00,22.4,27.6,"19:22:32",1
"23/07/29","19:40",0.0,30.6,61.5,1008.6,338.5,1.5,2.8,337.5,0.00,22.4,27.7,"19:33:28",1
"23/07/29","19:50",0.0,30.2,62.6,1008.3,352.5,0.8,2.5,318.7,0.00,22.3,27.7,"19:45:20",1
"23/07/29","20:00",0.0,29.8,63.8,1008.3,343.0,1.1,2.8,351.7,0.00,22.2,27.5,"19:52:56",1
"23/07/29","20:10",0.0,29.5,64.6,1008.6,336.0,1.2,2.5,343.3,0.00,22.2,27.3,"20:06:40",1
"23/07/29","20:20",0.0,29.4,64.7,1009.3,332.5,1.6,3.4,350.1,0.00,22.1,27.2,"20:19:28",1
"23/07/29","20:30",0.0,29.2,64.6,1009.5,341.0,1.7,3.9,315.2,0.00,21.9,27.5,"20:20:16",1
"23/07/29","20:40",0.0,29.1,65.0,1009.7,333.4,1.2,2.7,356.7,0.00,21.9,27.2,"20:36:40",1
"23/07/29","20:50",0.0,28.9,65.4,1009.3,337.8,1.1,3.6,331.2,0.00,21.8,27.3,"20:40:32",1
"23/07/29","21:00",0.0,28.9,65.2,1009.7,338.5,1.6,3.1,315.9,0.00,21.8,26.9,"20:58:08",1
"23/07/29","21:10",0.0,28.8,65.1,1009.7,335.1,1.5,3.5,327.3,0.00,21.6,27.0,"21:00:16",1
"23/07/29","21:20",0.0,28.8,65.2,1009.7,311.7,1.1,2.6,3.7,0.00,21.7,27.1,"21:12:56",1
"23/07/29","21:30",0.0,28.7,65.4,1010.0,321.6,1.2,2.5,351.3,0.00,21.6,27.0,"21:23:44",1
"23/07/29","21:40",0.0,28.6,65.5,1010.2,328.1,1.3,3.2,348.6,0.00,21.5,27.0,"21:31:20",1
"23/07/29","21:50",0.0,28.4,65.7,1010.0,324.9,1.3,3.4,342.7,0.00,21.4,26.9,"21:48:24",1
"23/07/29","22:00",0.0,28.3,66.6,1010.2,331.6,1.0,2.1,355.8,0.00,21.5,26.7,"21:50:56",1
"23/07/29","22:10",0.0,27.9,67.1,1010.4,325.7,1.1,2.2,332.4,0.00,21.3,26.9,"22:09:04",1
"23/07/29","22:20",0.0,27.8,67.4,1010.2,328.5,1.1,2.0,318.0,0.00,21.2,26.8,"22:14:48",1
"23/07/29","22:30",0.0,27.8,67.7,1010.2,312.7,1.0,2.1,344.0,0.00,21.3,26.9,"22:20:16",1
"23/07/29","22:40",0.0,27.7,68.2,1010.2,336.2,1.1,2.1,346.0,0.00,21.3,26.6,"22:39:36",1
"23/07/29","22:50",0.0,27.7,68.8,1010.4,334.2,1.2,2.6,338.9,0.00,21.5,26.7,"22:41:52",1
"23/07/29","23:00",0.0,27.3,70.4,1010.2,344.1,1.1,1.8,340.8,0.00,21.5,26.9,"22:55:04",1
"23/07/29","23:10",0.0,27.0,72.0,1010.2,344.2,1.2,2.8,344.3,0.00,21.6,26.5,"23:05:52",1
"23/07/29","23:20",0.0,26.9,73.1,1010.2,343.6,0.6,1.3,348.4,0.00,21.7,26.5,"23:12:56",1
"23/07/29","23:30",0.0,26.6,74.1,1010.0,322.5,0.7,1.2,336.9,0.00,21.6,26.5,"23:23:28",1
"23/07/29","23:40",0.0,26.5,74.9,1010.4,325.9,1.1,2.2,346.3,0.00,21.7,26.4,"23:36:48",1
"23/07/29","23:50",0.0,26.4,75.7,1010.4,322.5,1.2,2.2,309.8,0.00,21.8,26.5,"23:42:08",1
"23/07/29","24:00",0.0,26.4,76.3,1010.2,306.8,1.2,2.4,325.7,0.00,21.9,26.5,"23:56:56",1
